Regional Weather Roundup
Issued by NWS

Home | Current Version | Previous Version | Graphics & Text | Print | Product List | Glossary On
Versions: 1 2 3 4 5 6 7 8 9 10 11 12 13 14 15 16 17 18 19 20 21 22 23 24 25 26 27 28 29 30 31 32 33 34 35 36 37 38 39 40 41 42 43 44 45 46 47 48 49 50
000
ASUS43 KIND 191709
RWRIN

WEATHER ROUNDUP FOR INDIANA
NATIONAL WEATHER SERVICE INDIANAPOLIS IN
100 PM EDT SAT AUG 19 2017

NOTE: "FAIR" INDICATES FEW OR NO CLOUDS BELOW 12,000 FEET WITH NO
SIGNIFICANT WEATHER AND/OR OBSTRUCTIONS TO VISIBILITY.

* - STATION DOES NOT REPORT WEATHER SUCH AS PRECIPITATION OR FOG.

+ - STATION NOT QUALITY CONTROLLED BY THE NATIONAL WEATHER SERVICE.
    USE DATA WITH CAUTION...ESPECIALLY DEWPOINT AND RELATIVE
    HUMIDITY OBSERVATIONS.

INZ001>003-010>013-019-020-191800-
NORTHWEST INDIANA

CITY           SKY/WX    TMP DP  RH WIND       PRES   REMARKS
GARY /AIRPORT/ SUNNY     77  59  53 N6        29.98S
KNOX *+        MOSUNNY   75  63  64 N8        29.97S
LA PORTE +     SUNNY     77  59  53 N9        29.99R
MICHIGAN CITY+ MOSUNNY   73  61  64 N6        29.99R
MONTICELLO +   SUNNY     78  61  57 NE5       29.96S
RENSSELAER +   SUNNY     77  55  47 NE5       29.97S
VALPARAISO     SUNNY     79  63  57 NE7       29.98R

$$

LMZ046-743>745-191800-
SOUTHERN LAKE MICHIGAN

STATION/POSITION TIME  TEMP    WIND        PRES    WAVE
                       AIR SEA DIR/SP/G            HT
                 (UTC) (F)     (DEG/KT/KT) (MB)    (FT)
BURNS HARBOR     1640   71     350/  5/  7 1015.6R
MICHIGAN CITY    1640   73     330/  6/  7   N/A
5NW MICH CITY    1700   71 75  360/  4/  6   N/A     2

$$

INZ004-005-014>016-021>024-191800-
NORTH CENTRAL INDIANA

CITY           SKY/WX    TMP DP  RH WIND       PRES   REMARKS
ELKHART        MOSUNNY   77  59  53 NW6       29.97S
GOSHEN         MOSUNNY   77  59  53 VRB5      29.97R
LOGANSPORT +   SUNNY     77  61  57 CALM      29.98R
PERU/GRISSOM   SUNNY     77  61  58 E3        29.96R
ROCHESTER +    SUNNY     79  61  53 N6        29.97S
SOUTH BEND     SUNNY     77  60  55 NW10      29.97S
WARSAW +       MOSUNNY   73  63  68 NW6       29.97S

$$

INZ006>009-017-018-025>027-191800-
NORTHEAST INDIANA

CITY           SKY/WX    TMP DP  RH WIND       PRES   REMARKS
AUBURN +       MOSUNNY   75  61  60 N5        29.97S
FORT WAYNE     MOSUNNY   78  60  53 NW6       29.96F
HUNTINGTON +   SUNNY     76  60  55 N5        29.96F
KENDALLVILLE + MOSUNNY   74  63  66 NW7       29.98R

$$

INZ028-029-035-036-043>045-051>053-191800-
WEST CENTRAL INDIANA

CITY           SKY/WX    TMP DP  RH WIND       PRES   REMARKS
GREENCASTLE +  SUNNY     79  64  61 NW3       29.98S
LAFAYETTE      SUNNY     80  62  54 VRB6      29.96R
TERRE HAUTE    SUNNY     83  66  56 CALM      29.95F

$$

INZ030>032-037>040-046>048-054>057-064-065-191800-
CENTRAL INDIANA

CITY           SKY/WX    TMP DP  RH WIND       PRES   REMARKS
CP ATTERBURY + MOSUNNY   82  64  54 W3        29.96F
COLUMBUS       PTSUNNY   82  63  51 W5        29.96F
FRANKFORT +    PTSUNNY   82  67  60 CALM      29.99R
GREENWOOD *+   MOSUNNY   82  65  57 CALM      29.97F
INDIANAPOLIS   MOSUNNY   82  65  56 N5        29.95F
-EAGLE CREEK   SUNNY     82  65  56 CALM      29.95F
KOKOMO +       MOSUNNY   80  62  54 N5        29.98R
MARION +       MOSUNNY   75  63  64 N6        29.98S
MT COMFORT *+  PTSUNNY   81  64  57 CALM      29.97F
SHELBYVILLE    MOSUNNY   82  66  58 CALM      29.96F
ZIONSVILLE +   SUNNY     79  66  64 CALM      29.97S

$$

INZ033-034-041-042-049-050-058-059-191800-
EAST CENTRAL INDIANA

CITY           SKY/WX    TMP DP  RH WIND       PRES   REMARKS
MUNCIE         SUNNY     81  65  58 VRB3      29.96F
RICHMOND +     SUNNY     79  66  65 SW7       29.99S

$$

INZ060-061-067>069-081>083-085>088-191800-
SOUTHWEST INDIANA

CITY           SKY/WX    TMP DP  RH WIND       PRES   REMARKS
EVANSVILLE     SUNNY     83  68  60 CALM      29.97S
HUNTINGBURG +  SUNNY     81  72  74 W5        29.97S
WASHINGTON +   SUNNY     84  66  54 MISG      29.95F

$$

INZ062-063-066-070>080-084-089>092-191800-
SOUTH CENTRAL AND SOUTHEAST INDIANA

CITY           SKY/WX    TMP DP  RH WIND       PRES   REMARKS
BEDFORD +      SUNNY     84  66  54 SW8       29.95F
BLOOMINGTON    SUNNY     84  66  54 W7        29.96F
MADISON *+     SUNNY     86  64  48 W5        29.99F
NORTH VERNON + MOSUNNY   82  70  65 W6        29.97F
SEYMOUR +      MOSUNNY   88  68  51 W6        29.95F

$$




USA.gov is the U.S. government's official web portal to all federal, state and local government web resources and services.